This is the latest recevied weather packets stored in our database for station/object HASTNG-WX. If no packets are shown the sender has not sent any weather packets the latest 10 day(s).
| Time | Temp. | Humidity | Pressure | Rain* | Wind** | Luminosity | Snow |
|---|---|---|---|---|---|---|---|
| 1777731330 | 4.44° C | 58% | 989.2 hPa | 0 mm | - | - | - |
| 1777730460 | 4.44° C | 58% | 989.2 hPa | 0 mm | - | - | - |
| 1777729530 | 3.89° C | 74% | 988.9 hPa | 0 mm | - | - | - |
| 1777728648 | 3.89° C | 74% | 988.9 hPa | 0 mm | - | - | - |
| 1777727730 | 2.78° C | 74% | 988.9 hPa | 0 mm | - | - | - |
| 1777726855 | 2.78° C | 74% | 988.9 hPa | 0 mm | - | - | - |
| 1777725930 | 2.22° C | 80% | 988 hPa | 0 mm | - | - | - |
| 1777725047 | 1.67° C | 80% | 988.9 hPa | 0 mm | - | - | - |
| 1777724130 | 1.11° C | 80% | 988.9 hPa | 0 mm | - | - | - |
| 1777723263 | 1.11° C | 80% | 988.9 hPa | 0 mm | - | - | - |
| 1777722330 | 0.56° C | 85% | 988.6 hPa | 0 mm | - | - | - |
| 1777721452 | 0° C | 84% | 988.7 hPa | 0 mm | - | - | - |
| 1777720530 | -0.56° C | 84% | 988.7 hPa | 0 mm | - | - | - |
| 1777719658 | -0.56° C | 84% | 988.7 hPa | 0 mm | - | - | - |
| 1777718729 | -0.56° C | 82% | 988.4 hPa | 0 mm | - | - | - |
| 1777717848 | -0.56° C | 87% | 988.8 hPa | 0 mm | - | - | - |
| 1777716930 | -0.56° C | 87% | 988.8 hPa | 0 mm | - | - | - |
| 1777716057 | -0.56° C | 87% | 988.8 hPa | 0 mm | - | - | - |
| 1777715130 | -0.56° C | 85% | 987.8 hPa | 0 mm | - | - | - |
| 1777713329 | -0.56° C | 87% | 988.3 hPa | 0 mm | - | - | - |
| 1777712456 | -0.56° C | 87% | 988.3 hPa | 0 mm | - | - | - |
| 1777711528 | -0.56° C | 80% | 987.8 hPa | 0 mm | - | - | - |
| 1777710649 | -0.56° C | 79% | 988 hPa | 0 mm | - | - | - |
| 1777709730 | -0.56° C | 79% | 988 hPa | 0 mm | - | - | - |
| 1777708859 | -0.56° C | 79% | 988 hPa | 0 mm | - | - | - |
* Rain latest hour (hover to see other rain measurements)
** Current wind speed in m/s (hover to see current wind gust speed)